This is the latest recevied weather packets stored in our database for station/object MEGLR. If no packets are shown the sender has not sent any weather packets the latest 10 day(s).
| Time | Temp. | Humidity | Pressure | Rain* | Wind** | Luminosity | Snow |
|---|---|---|---|---|---|---|---|
| 1788673807 | 15° C | 87% | 0 hPa | - | - | - | - |
| 1788673202 | 15° C | 87% | 0 hPa | - | - | - | - |
| 1788672603 | 15.56° C | 87% | 0 hPa | - | - | - | - |
| 1788672008 | 15.56° C | 87% | 0 hPa | - | - | - | - |
| 1788671403 | 15.56° C | 87% | 0 hPa | - | - | - | - |
| 1788670803 | 15.56° C | 86% | 0 hPa | - | - | - | - |
| 1788670203 | 15.56° C | 89% | 0 hPa | - | - | - | - |
| 1788669603 | 15.56° C | 88% | 0 hPa | - | - | - | - |
| 1788669003 | 15.56° C | 85% | 0 hPa | - | - | - | - |
| 1788668402 | 16.11° C | 84% | 0 hPa | - | - | - | - |
| 1788667803 | 16.11° C | 82% | 0 hPa | - | - | - | - |
| 1788667203 | 16.11° C | 82% | 0 hPa | - | - | - | - |
| 1788666603 | 16.67° C | 81% | 0 hPa | - | - | - | - |
| 1788666003 | 16.11° C | 78% | 0 hPa | - | - | - | - |
| 1788665403 | 16.11° C | 78% | 0 hPa | - | - | - | - |
| 1788664802 | 16.11° C | 79% | 0 hPa | - | - | - | - |
| 1788664202 | 16.67° C | 79% | 0 hPa | - | - | - | - |
| 1788663603 | 16.67° C | 78% | 0 hPa | - | - | - | - |
| 1788663003 | 16.67° C | 78% | 0 hPa | - | - | - | - |
| 1788662403 | 16.67° C | 75% | 0 hPa | - | - | - | - |
| 1788661803 | 17.78° C | 77% | 0 hPa | - | - | - | - |
| 1788661203 | 17.78° C | 76% | 0 hPa | - | - | - | - |
| 1788660602 | 17.78° C | 73% | 0 hPa | - | - | - | - |
| 1788660003 | 16.67° C | 75% | 0 hPa | - | - | - | - |
| 1788659403 | 16.67° C | 78% | 0 hPa | - | - | - | - |
* Rain since midnight (hover to see other rain measurements)
** Current wind speed in m/s (hover to see current wind gust speed)